EW0924 Weather Reports


time (UTC)temp
C
wind
direction
speed
KPH
gust
KPH
rain 1hr
cm
rain 24hr
cm
rain mn
cm
humidity
%
barometer
mb
20260505200904 23 168 16.1 35.4 0.03 0.05 0.05 58 1005.1
20260505200004 23 160 19.3 33.8 0.00 0.05 0.05 59 1005.1
20260505195404 23 163 20.9 37.0 0.00 0.05 0.03 59 1005.1
20260505194525 23 149 14.5 33.8 0.00 0.03 0.03 60 1005.1
20260505193626 23 142 14.5 30.6 0.00 0.03 0.03 60 1005.1
20260505192704 23 165 11.3 29.0 0.00 0.03 0.03 60 1005.1
20260505191804 23 160 11.3 27.4 0.00 0.03 0.03 59 1005.1
20260505190904 23 150 12.9 27.4 0.00 0.03 0.03 60 1005.1
20260505190025 22 156 14.5 29.0 0.00 0.03 0.03 61 1005.1
20260505185404 22 152 16.1 29.0 0.03 0.03 0.03 61 1005.1
20260505184504 23 149 14.5 30.6 0.03 0.03 0.03 60 1005.1
20260505183604 23 156 12.9 25.7 0.03 0.03 0.03 59 1005.1
20260505182704 23 158 12.9 27.4 0.03 0.03 0.03 59 1005.1
20260505181804 23 166 11.3 27.4 0.03 0.03 0.03 59 1005.1
20260505180904 25 168 16.1 32.2 0.03 0.03 0.03 58 1005.1
20260505180025 25 190 16.1 35.4 0.00 0.00 0.00 53 1005.1
20260505175404 25 194 14.5 37.0 0.00 0.00 0.00 53 1005.1
20260505174504 25 189 11.3 24.1 0.00 0.00 0.00 54 1005.1
20260505173604 25 192 11.3 22.5 0.00 0.00 0.00 54 1005.1
20260505172704 24 178 11.3 24.1 0.00 0.00 0.00 54 1005.1
20260505171804 23 183 14.5 32.2 0.00 0.00 0.00 55 1005.1
20260505170904 23 171 14.5 32.2 0.00 0.00 0.00 56 1005.1
20260505170004 23 178 11.3 24.1 0.00 0.03 0.00 56 1005.1
20260505165404 23 190 9.7 22.5 0.00 0.05 0.00 55 1005.1
20260505164504 22 185 12.9 33.8 0.00 0.05 0.00 57 1005.1
20260505163604 22 178 14.5 25.7 0.00 0.05 0.00 57 1005.1
20260505162725 22 180 12.9 30.6 0.00 0.05 0.00 58 1005.1
20260505161804 22 180 12.9 33.8 0.00 0.05 0.00 57 1005.1
20260505160904 22 169 11.3 22.5 0.00 0.05 0.00 57 1005.1
20260505152705 21 183 11.3 25.7 0.00 0.05 0.00 59 1005.1
20260505151804 21 190 11.3 22.5 0.00 0.05 0.00 59 1005.1
20260505150925 20 180 12.9 27.4 0.00 0.05 0.00 59 1005.1
20260505124504 15 163 8.0 17.7 0.00 0.05 0.00 69 1005.1
20260505123604 14 167 8.0 17.7 0.00 0.05 0.00 69 1005.1
20260505122725 13 171 9.7 17.7 0.00 0.05 0.00 71 1005.1
20260505121805 13 179 8.0 12.9 0.00 0.05 0.00 72 1005.1
20260505120905 13 174 6.4 14.5 0.00 0.05 0.00 72 1005.1
20260505120025 13 173 9.7 17.7 0.00 0.05 0.00 73 1005.1
20260505115404 13 174 6.4 16.1 0.00 0.05 0.00 73 1005.1
20260505114505 12 178 8.0 17.7 0.00 0.05 0.00 74 1005.1
20260505113604 12 179 9.7 19.3 0.00 0.05 0.00 75 1005.1
20260505112704 12 170 8.0 16.1 0.00 0.05 0.00 75 1005.1
20260505111804 12 168 9.7 16.1 0.00 0.05 0.00 75 1005.1
20260505110905 11 174 9.7 16.1 0.00 0.05 0.00 75 1005.1
20260505101804 11 171 8.0 16.1 0.00 0.05 0.00 77 1005.1
20260505100925 11 165 6.4 16.1 0.00 0.05 0.00 76 1005.1
20260505100005 11 165 8.0 14.5 0.00 0.05 0.00 75 1005.1
20260505095404 11 171 6.4 14.5 0.00 0.05 0.00 75 1005.1
20260505094504 11 167 6.4 14.5 0.00 0.05 0.00 75 1005.1
20260505093605 11 173 6.4 9.7 0.00 0.05 0.00 75 1005.1
20260505092725 11 183 6.4 11.3 0.00 0.05 0.00 74 1005.1
20260505091804 12 183 4.8 9.7 0.00 0.05 0.00 73 1005.1
20260505090904 12 186 4.8 9.7 0.00 0.05 0.00 74 1005.1
20260505090004 12 167 6.4 11.3 0.00 0.05 0.00 73 1005.1
20260505085405 12 158 6.4 14.5 0.00 0.05 0.00 73 1005.1
20260505084504 12 166 8.0 16.1 0.00 0.05 0.00 73 1005.1
20260505083625 12 161 6.4 16.1 0.00 0.05 0.00 72 1005.1
20260505082705 12 166 8.0 16.1 0.00 0.05 0.00 71 1005.1
20260505081805 12 169 6.4 16.1 0.00 0.05 0.00 72 1005.1
20260505080904 12 174 6.4 14.5 0.00 0.05 0.00 71 1005.1
20260505080004 12 175 8.0 16.1 0.00 0.05 0.00 71 1005.1
20260505075404 12 175 8.0 14.5 0.00 0.05 0.00 71 1005.1
20260505074504 12 172 8.0 17.7 0.00 0.05 0.00 71 1005.1
20260505073604 12 170 6.4 12.9 0.00 0.05 0.00 70 1005.1
20260505072725 12 163 6.4 12.9 0.00 0.05 0.00 71 1005.1
20260505071825 12 187 6.4 12.9 0.00 0.05 0.00 71 1005.1
20260505070904 12 197 4.8 12.9 0.00 0.05 0.00 72 1005.1
20260505070004 12 199 4.8 14.5 0.00 0.05 0.00 71 1005.1
20260505065404 12 191 6.4 14.5 0.00 0.05 0.00 70 1005.1
20260505064504 12 183 6.4 14.5 0.00 0.05 0.00 70 1005.1
20260505063605 12 181 6.4 16.1 0.00 0.05 0.00 71 1005.1
20260505062705 12 185 4.8 11.3 0.00 0.05 0.00 70 1005.1
20260505061804 12 196 4.8 12.9 0.00 0.05 0.00 70 1005.1
20260505060905 13 201 6.4 12.9 0.00 0.05 0.00 69 1005.1
20260505060004 13 192 4.8 11.3 0.00 0.05 0.00 69 1005.1
20260505055404 13 188 6.4 12.9 0.00 0.05 0.00 69 1005.1
20260505054525 13 200 4.8 12.9 0.00 0.05 0.00 69 1005.1
20260505053605 13 201 6.4 12.9 0.00 0.05 0.00 69 1005.1
20260505052704 13 209 6.4 14.5 0.00 0.05 0.00 68 1005.1
20260505051804 13 206 6.4 16.1 0.00 0.05 0.00 68 1005.1
20260505050904 12 200 6.4 16.1 0.00 0.05 0.00 69 1005.1
20260505040905 12 177 9.7 22.5 0.00 0.05 0.00 71 1005.1
20260505040005 11 166 8.0 17.7 0.00 0.05 0.00 74 1005.1
20260505035404 11 165 4.8 12.9 0.00 0.05 0.05 75 1005.1
20260505034504 11 189 3.2 6.4 0.00 0.05 0.05 74 1005.1
20260505033604 11 193 3.2 8.0 0.00 0.05 0.05 74 1005.1
20260505032704 11 183 3.2 8.0 0.00 0.05 0.05 74 1005.1
20260505031825 11 183 4.8 8.0 0.00 0.05 0.05 73 1005.1
20260505030904 11 214 4.8 8.0 0.00 0.05 0.05 76 1005.1
20260505030004 12 204 4.8 8.0 0.00 0.05 0.05 73 1005.1
20260505025404 11 205 4.8 8.0 0.00 0.05 0.05 74 1005.1
20260505024504 12 199 4.8 9.7 0.00 0.05 0.05 72 1005.1
20260505023605 12 185 4.8 9.7 0.00 0.05 0.05 72 1005.1
20260505022704 12 175 3.2 8.0 0.00 0.05 0.05 71 1005.1
20260505021805 13 178 3.2 4.8 0.00 0.05 0.05 70 1005.1
20260505020905 13 177 3.2 6.4 0.00 0.05 0.05 69 1005.1
20260505020004 13 181 3.2 4.8 0.00 0.05 0.05 68 1005.1
20260505015404 13 190 3.2 8.0 0.00 0.05 0.05 68 1005.1
20260505014505 13 181 3.2 8.0 0.00 0.05 0.05 67 1005.1
20260505013604 14 192 3.2 4.8 0.00 0.05 0.05 66 1005.1
20260505012704 14 185 3.2 4.8 0.00 0.05 0.05 65 1005.1
20260505011804 15 171 3.2 6.4 0.00 0.05 0.05 64 1005.1
20260505010904 15 147 4.8 9.7 0.00 0.05 0.05 63 1005.1
20260505010004 15 134 3.2 6.4 0.00 0.05 0.05 62 1005.1
20260505005405 15 109 3.2 8.0 0.00 0.05 0.05 62 1005.1
20260505004504 16 129 3.2 8.0 0.00 0.05 0.05 58 1005.1
20260505003625 16 158 3.2 8.0 0.00 0.05 0.05 57 1005.1
20260505002705 16 168 4.8 8.0 0.00 0.05 0.05 57 1005.1
20260505001825 16 153 4.8 9.7 0.00 0.05 0.05 57 1005.1
20260505000904 16 148 4.8 9.7 0.00 0.05 0.05 57 1005.1
20260505000005 16 156 3.2 8.0 0.00 0.05 0.05 59 1005.1
20260504235404 16 160 3.2 8.0 0.00 0.05 0.05 61 1005.1
20260504234525 16 131 3.2 8.0 0.00 0.05 0.05 60 1005.1
20260504233604 16 143 3.2 8.0 0.00 0.05 0.05 60 1005.1
20260504232704 16 114 4.8 6.4 0.00 0.05 0.05 61 1005.1
20260504231804 16 96 3.2 8.0 0.00 0.05 0.05 61 1005.1
20260504230904 16 91 3.2 6.4 0.00 0.05 0.05 61 1005.1
20260504230004 17 83 3.2 8.0 0.00 0.05 0.05 61 1005.1
20260504225404 17 79 3.2 6.4 0.00 0.05 0.05 60 1005.1
20260504224504 17 78 3.2 6.4 0.00 0.05 0.05 59 1005.1
20260504223604 17 81 1.6 4.8 0.00 0.05 0.05 58 1005.1
20260504222705 17 55 1.6 4.8 0.00 0.05 0.05 58 1005.1
20260504221804 17 33 1.6 6.4 0.00 0.05 0.05 58 1005.1
20260504220904 17 321 3.2 8.0 0.00 0.05 0.05 58 1005.1
20260504220004 18 337 4.8 8.0 0.00 0.05 0.05 57 1005.1
20260504215404 18 336 3.2 8.0 0.00 0.05 0.05 57 1005.1
20260504214504 17 352 1.6 6.4 0.00 0.05 0.05 56 1005.1
20260504213625 17 358 1.6 6.4 0.00 0.05 0.05 58 1005.1
20260504212725 17 304 3.2 9.7 0.00 0.05 0.05 56 1005.1
20260504211804 17 240 3.2 11.3 0.00 0.05 0.05 56 1005.1
20260504210905 17 263 4.8 12.9 0.00 0.05 0.05 56 1005.1
20260504210025 17 244 4.8 12.9 0.00 0.05 0.05 56 1005.1
20260504205404 17 253 3.2 8.0 0.00 0.05 0.05 57 1005.1
20260504204525 17 246 3.2 8.0 0.00 0.05 0.05 58 1005.1
20260504203604 17 246 4.8 12.9 0.00 0.05 0.05 59 1005.1
20260504202704 16 235 4.8 11.3 0.00 0.05 0.05 59 1005.1
20260504201804 17 242 3.2 9.7 0.00 0.05 0.05 59 1005.1